This demonstration page uses our WeatherBlox Daily Observations layout. Learn more.

Left ArrowRight Arrow

39.29038, -76.61219

Hourly Observations for March 2, 2021

Temp ( °F °C ) Dew Point ( °F °C ) Humidity (%) Winds ( mph kmh ) Pressure ( in mb ) Visibility ( mi km ) Precip ( " mm )
12:54 am 00:54 Mostly Clear 37 2.8 17 -8.3 44 44 WNW 13 20 30.09 1019 10 16.0934 0 0
1:54 am 01:54 Mostly Clear 35 1.7 13 -10.6 40 40 WNW 16 26 30.13 1020 10 16.0934 0 0
2:54 am 02:54 Clear 34 1.1 11 -11.7 38 38 NW 16 26 30.16 1021 10 16.0934 0 0
3:54 am 03:54 Clear 32 0 14 -10 47 47 NW 10 17 30.19 1022 10 16.0934 0 0
4:54 am 04:54 Clear 31 -0.6 12 -11.1 45 45 NW 13 20 30.21 1023 10 16.0934 0 0
5:54 am 05:54 Mostly Clear 30 -1.1 8 -13.3 39 39 NW 13 20 30.24 1024 10 16.0934 0 0
6:54 am 06:54 Mostly Sunny 29 -1.7 7 -13.9 39 39 WNW 12 19 30.27 1025 10 16.0934 0 0
7:54 am 07:54 Mostly Sunny 31 -0.6 9 -12.8 40 40 NNW 8 13 30.29 1026 10 16.0934 0 0
8:54 am 08:54 Mostly Sunny 32 0 7 -13.9 35 35 NW 10 17 30.3 1026 10 16.0934 0 0
9:54 am 09:54 Mostly Sunny 34 1.1 8 -13.3 34 34 WNW 8 13 30.31 1026 10 16.0934 0 0
10:54 am 10:54 Mostly Sunny 36 2.2 8 -13.3 31 31 WNW 15 24 30.31 1026 10 16.0934 0 0
11:54 am 11:54 Mostly Sunny 38 3.3 8 -13.3 29 29 W 8 13 30.29 1026 10 16.0934 0 0
12:54 pm 12:54 Mostly Sunny 40 4.4 10 -12.2 29 29 W 13 20 30.27 1025 10 16.0934 0 0
1:54 pm 13:54 Mostly Sunny 41 5 10 -12.2 28 28 WSW 15 24 30.24 1024 10 16.0934 0 0
2:54 pm 14:54 Mostly Sunny 44 6.7 10 -12.2 25 25 NNW 5 7 30.22 1023 10 16.0934 0 0
3:54 pm 15:54 Mostly Sunny 43 6.1 8 -13.3 24 24 W 10 17 30.22 1023 10 16.0934 0 0
4:54 pm 16:54 Partly Cloudy 42 5.6 9 -12.8 25 25 WNW 6 9 30.2 1023 10 16.0934 0 0
5:54 pm 17:54 Mostly Sunny 40 4.4 8 -13.3 27 27 W 3 6 30.19 1022 10 16.0934 0 0
6:54 pm 18:54 Mostly Clear 38 3.3 8 -13.3 29 29 Calm 30.18 1022 10 16.0934 0 0
7:54 pm 19:54 Mostly Clear 37 2.8 8 -13.3 30 30 S 3 6 30.16 1021 10 16.0934 0 0
8:54 pm 20:54 Clear 33 0.6 12 -11.1 42 42 Calm 30.17 1022 10 16.0934 0 0
9:54 pm 21:54 Clear 34 1.1 12 -11.1 40 40 SSW 3 6 30.15 1021 10 16.0934 0 0
10:54 pm 22:54 Clear 33 0.6 13 -10.6 43 43 Calm 30.12 1020 10 16.0934 0 0
11:54 pm 23:54 Clear 32 0 14 -10 47 47 SSW 3 6 30.1 1019 10 16.0934 0 0

Powered by AerisWeather